Regional Weather Roundup
Issued by NWS Portland, ME

Current Version | Previous Version | Text Only | Print | Product List | Glossary On
Versions: 1 2 3 4 5 6 7 8 9 10 11 12 13 14 15 16 17 18 19 20 21 22 23 24 25 26 27 28 29 30 31 32 33 34 35 36 37 38 39 40 41 42 43 44 45 46 47 48 49 50
000 ASUS41 KGYX 110210 RWRGYX WEATHER ROUNDUP FOR MAINE AND NEW HAMPSHIRE NATIONAL WEATHER SERVICE GRAY ME 900 PM EST SUN DEC 10 2017 MEZ002-005-006-010-012-015-018-020-021-024-026-027-029-110300- MAINE CITY SKY/WX TMP DP RH WIND PRES REMARKS PORTLAND CLOUDY 30 23 75 CALM 29.89R SANFORD MOCLDY 25 23 92 SW6 29.89R BAR HARBOR PTCLDY 28 24 85 W3 29.86R WISCASSET PTCLDY 23 22 96 CALM 29.89R ROCKLAND CLEAR 29 24 82 NW5 29.87R FRYEBURG CLOUDY 23 21 92 CALM 29.85R LEWISTONAUBURN CLOUDY 27 22 81 S3 29.86R AUGUSTA CLEAR 28 21 75 SW3 29.85R WATERVILLE CLEAR 22 18 85 W5 29.80S BANGOR PTCLDY 28 17 63 W3 29.85R GREENVILLE N/A 17 10 74 CALM 29.73R MILLINOCKET CLEAR 24 13 62 W8 29.82R HOULTON CLEAR 23 14 68 W7 29.76R PRESQUE ISLE CLEAR 21 13 71 W8 29.74R FRENCHVILLE PTCLDY 14 9 80 NW8 29.67R CARIBOU CLEAR 21 13 71 W9 29.71R $$ NHZ002-005-008-009-011-012-014-110300- NEW HAMPSHIRE CITY SKY/WX TMP DP RH WIND PRES REMARKS PORTSMOUTH MOCLDY 29 20 69 SW8 29.90R ROCHESTER PTCLDY 26 21 81 S3 29.88R NASHUA CLOUDY 22 19 89 CALM 29.92R MANCHESTER PTCLDY 29 21 72 S3 29.90R CONCORD CLOUDY 29 19 66 SW7 29.89R PLYMOUTH CLOUDY 27 25 89 CALM 29.85S BERLIN MOCLDY 15 13 91 CALM 29.78S FOG WHITEFIELD CLOUDY 19 17 92 CALM 29.79S JAFFREY CLEAR 18 17 96 CALM 29.87R KEENE CLOUDY 21 18 88 CALM 29.90R LEBANON CLOUDY 29 20 69 S8 29.84S MT WASHINGTON SNOW 3 3 100 W41G47 N/A VSB 0 WCI -25 $$ VTZ005-007-008-110300- VERMONT CITY SKY/WX TMP DP RH WIND PRES REMARKS ST JOHNSBURY N/A 27 21 78 MISG 29.80R MONTPELIER CLOUDY 26 18 71 SW7 29.82S BURLINGTON CLOUDY 31 20 63 S8 29.82S $$ MAZ007-012-024-CTZ003-RIZ002-NYZ038-NYZ072-110300- SOUTHERN NEW ENGLAND AND NY CITY SKY/WX TMP DP RH WIND PRES REMARKS BOSTON CLOUDY 32 25 75 SW10 29.95R WORCESTER PTCLDY 25 19 78 SW9 29.89R NANTUCKET CLOUDY 38 25 59 W5 29.98S PROVIDENCE MOCLDY 33 23 66 W5 29.97S HARTFORD CLOUDY 33 23 66 SW10 29.94R ALBANY CLOUDY 32 20 61 S6 29.90S NEW YORK CITY CLOUDY 37 22 54 SW13G22 30.01R $$ ANZ081-ANZ082-ANZ150-NHZ014-MEZ023>029-110300- COASTAL MARINE OBSERVATIONS STATION/POSITION TIME TEMP WIND PRES WAVE AIR SEA DIR/SP/G HT/PER (UTC) (F) (DEG/KT/KT) (MB) (FT/S) MOUNT DESERT ROC 0200 39 260/ 19/ 22 1011.1R MATINICUS ROCK 0100 38 270/ 26/ 30 1010.2R ISLE OF SHOALS 0100 36 240/ 21/ 22 1012.2R JEFFREYS LEDGE 0136 48 N/A 7/11 GEORGES BANK BUO 0050 45 51 1013.9 12/11 $$ .............KEY.............. WCI - WIND CHILL TC - TEMPERATURE IN CELSIUS VSB - VISIBILITY IN MILES HX - HEAT INDEX FAIR- INDICATES FEW OR NO CLOUDS BELOW 12,000 FT, WITH NO SIGNIFICANT WEATHER AND/OR OBSTRUCTIONS TO VISIBILITY.

USA.gov is the U.S. government's official web portal to all federal, state and local government web resources and services.